Weather Roundup
Issued by NWS Chicago, IL

Home | Current Version | Previous Version | Text Only | Print | Product List | Glossary On
Versions: 1 2 3 4 5 6 7 8 9 10 11 12 13 14 15 16 17 18 19 20 21 22 23 24 25 26 27 28 29 30 31 32 33 34 35 36 37 38 39 40 41 42 43 44 45 46 47 48 49 50
000
NZUS59 KLOT 251221
HRRLOT

CHICAGO AREA WEATHER ROUNDUP
NATIONAL WEATHER SERVICE CHICAGO/ROMEOVILLE IL
700 AM CDT SAT APR 25 2015

NOTE: "FAIR" INDICATES FEW OR NO CLOUDS BELOW 12,000 FEET WITH NO
SIGNIFICANT WEATHER AND/OR OBSTRUCTIONS TO VISIBILITY.

* THESE STATIONS ARE NOT UNDER NWS QUALITY CONTROL. THEY ALSO MAY NOT
  REPORT WEATHER SUCH AS PRECIPITATION OR FOG.

ILZ005-006-012>014-019>023-251300-
NORTHEAST ILLINOIS

CITY           SKY/WX    TMP DP  RH WIND       PRES   REMARKS
OHARE          CLOUDY    43  37  79 E14       29.79F
6HR MIN TEMP:  41; 6HR MAX TEMP:  44;

MIDWAY         LGT RAIN  46  40  79 E18       29.80S
6HR MIN TEMP:  45; 6HR MAX TEMP:  46; 6HR PCP: TRACE;

AURORA         LGT RAIN  45  38  76 E13       29.79R
6HR MIN TEMP:  42; 6HR MAX TEMP:  45; 6HR PCP:  0.04;

LANSING*       RAIN      43  38  83 E9        29.81R
JOLIET*        CLOUDY    46  42  86 E9        29.78R
WAUKEGAN       CLOUDY    40  37  89 E10       29.82F
6HR MIN TEMP:  39; 6HR MAX TEMP:  40;

DUPAGE AIRPORT LGT RAIN  44  38  79 E14       29.77S
6HR MIN TEMP:  41; 6HR MAX TEMP:  44; 6HR PCP:  0.01;

WHEELING       CLOUDY    43  37  79 E9        29.82F
6HR MIN TEMP:  41; 6HR MAX TEMP:  43;

KANKAKEE*      LGT RAIN  43  42  95 E14       29.76S
MORRIS*        LGT RAIN  44  41  89 E16       29.74S
LEWIS AIRPORT* DRIZZLE   44  39  83 E12       29.79R
NORTHERLY IS     N/A     43  39  86 E16         N/A
$$

WIZ051-052-058>065-066-070>072-251300-
SOUTHEAST WISCONSIN

CITY           SKY/WX    TMP DP  RH WIND       PRES   REMARKS
MILWAUKEE      CLOUDY    40  35  83 E10       29.87R
6HR MIN TEMP:  38; 6HR MAX TEMP:  41;

KENOSHA*       CLOUDY    41  37  86 E12       29.84S
RACINE*        CLOUDY    41  36  82 E10       29.87R
BURLINGTON     CLOUDY    40  36  84 E9        29.83F
WAUKESHA       CLOUDY    37  34  87 E8        29.86S
WEST BEND      CLOUDY    37  32  81 NE8       29.88R
$$

INZ001>003-010>013-019-020-251300-
NORTHWEST INDIANA

CITY           SKY/WX    TMP DP  RH WIND       PRES   REMARKS
GARY*          LGT RAIN  46  36  66 E12G23    29.81R
MICHIGAN CITY* NOT AVBL
RENSSELAER*    NOT AVBL
VALPARAISO     LGT RAIN  42  38  85 E12       29.81R
$$

LMZ740>746-251300-
SOUTHERN LAKE MICHIGAN

STATION/POSITION TIME  SKY/WX   TEMP WIND        PRES    VSBY
                                AIR  DIR/SP/G
                 (UTC)          (F)  (DEG/KT/KT) (MB)    (MI)
HARRISON CRIB    1200            42   90/ 20/ 24   N/A
BURNHAM HARBOR   1200            43  100/ 15       N/A
CALUMET HARBOR   1200            45  100/ 10/ 17   N/A
BURNS HARBOR     1200            45  100/  9/ 22 1010.2R
MICHIGAN CITY    1200            45   80/ 15/ 20   N/A
$$

ABBREVIATIONS USED IN REMARKS
   TC - TEMPERATURE IN CELSIUS
  WCI - WIND CHILL INDEX
   HX - HEAT INDEX
  VSB - VISIBILITY
$$



USA.gov is the U.S. government's official web portal to all federal, state and local government web resources and services.